Location: Newark
(45.2500°N, 7.5833°E)
Time: 18:01:53
(UTC+00:00)

Tiros 1 despin weight - Pass Details

Date: 03 February 2020
Orbit: 594 x 642 km, 48.2° (Epoch: 23 February)

Event Time Altitude Azimuth Distance (km) Brightness Sun altitude
Rises 13:48:22 0° 286° (WNW) 2,887 ? 22.0°
Reaches altitude 10° 13:51:04 10° 271° (W) 1,987 ? 21.7°
Maximum altitude 13:54:34 22° 221° (SW) 1,380 ? 21.4°
Drops below altitude 10° 13:58:04 10° 171° (S) 2,001 ? 21.0°
Sets 14:00:49 0° 156° (SSE) 2,912 ? 20.8°
